Weather History for Nebraska City, NE

Change the Weather History Date:

Monday, September 23, 2013

  Actual Average (KSDA) Record (KSDA)
Temperature  
Mean Temperature 64 °F -  
Max Temperature 77 °F 72 °F 91 °F (1999)
Min Temperature 52 °F 47 °F 26 °F (1983)
Growing Degree Days 14 (Base 50)    
Moisture  
Dew Point 51 °F    
Average Humidity 64    
Maximum Humidity 95    
Minimum Humidity 39    
Precipitation  
Precipitation 0.00 in - - ()
Sea Level Pressure  
Sea Level Pressure 29.81 in    
Wind  
Wind Speed 10 mph (SSE)    
Max Wind Speed 24 mph    
Max Gust Speed 31 mph    
Visibility 10 miles    
Events Thunderstorm    
Averages and records for this station are not official NWS values.
T = Trace of Precipitation, MM = Missing Value Source: NWS Daily Summary

Daily Weather History Graph

Daily Weather History Graph

Search for Another Location

Airport:

Trip Planner

Search our weather history database for the weather conditions in past years. The results will help you decide how hot, cold, wet, or windy it might be!

Date:

Astronomy

Sep. 23, 2013 Rise Set
Actual Time 7:12 AM CDT 7:18 PM CDT
Civil Twilight 6:44 AM CDT 7:45 PM CDT
Nautical Twilight 6:13 AM CDT 8:17 PM CDT
Astronomical Twilight 5:40 AM CDT 8:49 PM CDT
Moon 9:50 PM CDT (9/23) 11:33 AM CDT (9/23)
Length of Visible Light 13h 00m
Length of Day
12h 06m
Waning Gibbous, 81% of the Moon is Illuminated
Sep 23
Waning Gibbous
Sep 26
Last Quarter
Oct 4
New
Oct 11
First Quarter
Oct 18
Full

Hourly Weather History & Observations

Time (CDT) Temp. Dew Point Humidity Pressure Visibility Wind Dir Wind Speed Gust Speed Precip Events Conditions
12:15 AM 57.6 °F 51.3 °F 79% 29.87 in 10.0 mi SSE 4.6 mph - N/A   Clear
12:35 AM 56.8 °F 51.3 °F 82% 29.87 in 10.0 mi SSE 4.6 mph - N/A   Clear
12:55 AM 56.5 °F 50.9 °F 82% 29.86 in 10.0 mi SSE 5.8 mph - N/A   Clear
1:15 AM 55.2 °F 50.0 °F 83% 29.87 in 10.0 mi SSE 4.6 mph - N/A   Clear
1:35 AM 55.4 °F 50.4 °F 83% 29.87 in 10.0 mi SSE 4.6 mph - N/A   Clear
1:55 AM 56.5 °F 50.9 °F 82% 29.87 in 10.0 mi SE 4.6 mph - N/A   Clear
2:15 AM 56.3 °F 50.5 °F 81% 29.87 in 10.0 mi SE 6.9 mph - N/A   Clear
2:35 AM 55.2 °F 50.4 °F 84% 29.87 in 10.0 mi SE 6.9 mph - N/A   Clear
2:55 AM 55.4 °F 50.4 °F 83% 29.86 in 10.0 mi SE 5.8 mph - N/A   Clear
3:15 AM 54.3 °F 50.2 °F 86% 29.85 in 10.0 mi SE 8.1 mph - N/A   Clear
3:35 AM 54.5 °F 50.4 °F 86% 29.85 in 10.0 mi SSE 5.8 mph - N/A   Clear
3:55 AM 54.1 °F 50.4 °F 87% 29.85 in 10.0 mi SSE 5.8 mph - N/A   Clear
4:15 AM 53.6 °F 50.0 °F 88% 29.84 in 10.0 mi SSE 5.8 mph - N/A   Clear
4:35 AM 53.4 °F 50.2 °F 89% 29.84 in 10.0 mi SSE 4.6 mph - N/A   Clear
4:55 AM 53.8 °F 50.4 °F 88% 29.84 in 10.0 mi SSE 8.1 mph - N/A   Clear
5:15 AM 54.5 °F 50.4 °F 86% 29.84 in 10.0 mi SSE 8.1 mph - N/A   Clear
5:35 AM 53.8 °F 50.2 °F 88% 29.84 in 10.0 mi SSE 6.9 mph - N/A   Clear
5:55 AM 53.8 °F 50.4 °F 88% 29.83 in 10.0 mi SSE 6.9 mph - N/A   Clear
6:15 AM 53.4 °F 50.5 °F 90% 29.83 in 10.0 mi SSE 8.1 mph - N/A   Clear
6:35 AM 54.0 °F 50.4 °F 88% 29.84 in 10.0 mi SSE 9.2 mph - N/A   Clear
6:55 AM 52.7 °F 50.0 °F 91% 29.86 in 10.0 mi South 5.8 mph - N/A   Clear
7:15 AM 52.5 °F 51.1 °F 95% 29.86 in 10.0 mi South 6.9 mph - N/A   Clear
7:35 AM 53.8 °F 50.9 °F 90% 29.86 in 10.0 mi SSE 8.1 mph - N/A   Clear
7:55 AM 54.7 °F 51.3 °F 88% 29.87 in 10.0 mi SSE 9.2 mph - N/A   Clear
8:15 AM 55.8 °F 51.8 °F 87% 29.87 in 10.0 mi SSE 8.1 mph - N/A   Clear
8:35 AM 57.4 °F 52.2 °F 83% 29.87 in 10.0 mi SSE 11.5 mph 17.3 mph N/A   Clear
8:55 AM 59.2 °F 52.7 °F 79% 29.86 in 10.0 mi SSE 11.5 mph 17.3 mph N/A   Clear
9:15 AM 60.6 °F 52.3 °F 74% 29.86 in 10.0 mi SSE 15.0 mph 21.9 mph N/A   Clear
9:35 AM 61.7 °F 52.0 °F 70% 29.86 in 10.0 mi SSE 19.6 mph 24.2 mph N/A   Clear
9:55 AM 63.7 °F 52.5 °F 67% 29.86 in 10.0 mi SSE 16.1 mph 25.3 mph N/A   Clear
10:15 AM 65.5 °F 52.7 °F 63% 29.86 in 10.0 mi South 18.4 mph 27.6 mph N/A   Clear
10:35 AM 66.9 °F 53.1 °F 61% 29.86 in 10.0 mi South 19.6 mph 26.5 mph N/A   Clear
10:55 AM 67.8 °F 53.1 °F 59% 29.86 in 10.0 mi South 16.1 mph 27.6 mph N/A   Clear
11:15 AM 69.1 °F 53.6 °F 58% 29.85 in 10.0 mi South 17.3 mph 26.5 mph N/A   Clear
11:35 AM 70.2 °F 54.0 °F 56% 29.84 in 10.0 mi SSE 17.3 mph 26.5 mph N/A   Clear
11:55 AM 71.8 °F 54.0 °F 53% 29.84 in 10.0 mi South 24.2 mph - N/A   Clear
12:15 PM 72.7 °F 54.1 °F 52% 29.84 in 10.0 mi South 19.6 mph 24.2 mph N/A   Clear
12:35 PM 73.6 °F 53.4 °F 49% 29.83 in 10.0 mi SSE 17.3 mph 25.3 mph N/A   Clear
12:55 PM 74.5 °F 52.5 °F 46% 29.82 in 10.0 mi South 23.0 mph 27.6 mph N/A   Clear
1:15 PM 74.8 °F 52.7 °F 46% 29.82 in 10.0 mi South 24.2 mph 29.9 mph N/A   Clear
1:35 PM 74.8 °F 52.0 °F 45% 29.81 in 10.0 mi SSE 20.7 mph 28.8 mph N/A   Clear
1:55 PM 75.2 °F 51.4 °F 43% 29.81 in 10.0 mi SSE 21.9 mph 28.8 mph N/A   Clear
2:15 PM 75.9 °F 52.9 °F 45% 29.79 in 10.0 mi SSE 13.8 mph 26.5 mph N/A   Clear
2:35 PM 76.1 °F 51.8 °F 43% 29.79 in 10.0 mi South 19.6 mph 31.1 mph N/A   Clear
2:55 PM 76.3 °F 51.3 °F 41% 29.78 in 10.0 mi SE 20.7 mph 28.8 mph N/A   Clear
3:15 PM 77.0 °F 52.0 °F 42% 29.77 in 10.0 mi SSE 20.7 mph 25.3 mph N/A   Clear
3:35 PM 76.3 °F 51.1 °F 41% 29.76 in 10.0 mi SSE 16.1 mph 26.5 mph N/A   Clear
3:55 PM 76.3 °F 50.0 °F 40% 29.75 in 10.0 mi SE 23.0 mph 29.9 mph N/A   Clear
4:15 PM 76.1 °F 49.3 °F 39% 29.75 in 10.0 mi SE 20.7 mph 28.8 mph N/A   Clear
4:35 PM 76.1 °F 50.0 °F 40% 29.74 in 10.0 mi SSE 16.1 mph 27.6 mph N/A   Clear
4:55 PM 76.1 °F 49.5 °F 39% 29.74 in 10.0 mi SE 24.2 mph 29.9 mph N/A   Clear
5:15 PM 75.7 °F 49.6 °F 40% 29.75 in 10.0 mi SSE 18.4 mph 27.6 mph N/A   Clear
5:35 PM 75.2 °F 49.5 °F 40% 29.75 in 10.0 mi SE 18.4 mph 25.3 mph N/A   Clear
5:55 PM 74.1 °F 50.0 °F 43% 29.75 in 10.0 mi SSE 18.4 mph 25.3 mph N/A   Clear
6:15 PM 73.4 °F 50.0 °F 44% 29.76 in 10.0 mi SE 15.0 mph 25.3 mph N/A   Clear
6:35 PM 71.8 °F 49.3 °F 45% 29.76 in 10.0 mi SE 17.3 mph - N/A   Clear
6:55 PM 70.7 °F 49.5 °F 47% 29.77 in 10.0 mi SSE 12.7 mph 17.3 mph N/A   Clear
7:15 PM 69.8 °F 49.5 °F 48% 29.77 in 10.0 mi SSE 11.5 mph 18.4 mph N/A   Clear
7:35 PM 69.8 °F 49.6 °F 49% 29.76 in 10.0 mi SE 12.7 mph 19.6 mph N/A   Clear
7:55 PM 69.6 °F 49.6 °F 49% 29.76 in 10.0 mi SE 13.8 mph 19.6 mph N/A   Clear
8:15 PM 69.1 °F 49.5 °F 50% 29.77 in 10.0 mi SE 15.0 mph 19.6 mph N/A   Scattered Clouds
8:35 PM 68.2 °F 49.5 °F 51% 29.78 in 10.0 mi SE 12.7 mph 17.3 mph N/A   Scattered Clouds
8:55 PM 68.0 °F 49.5 °F 51% 29.78 in 10.0 mi SE 13.8 mph 21.9 mph N/A   Scattered Clouds
9:15 PM 66.9 °F 50.0 °F 54% 29.77 in 10.0 mi SE 13.8 mph - N/A   Clear
9:35 PM 67.1 °F 50.0 °F 54% 29.77 in 10.0 mi SE 15.0 mph 23.0 mph N/A   Clear
9:55 PM 67.1 °F 50.2 °F 55% 29.78 in 10.0 mi SE 15.0 mph 24.2 mph N/A   Clear
10:15 PM 66.2 °F 50.9 °F 58% 29.77 in 10.0 mi SE 12.7 mph - N/A   Clear
10:35 PM 65.8 °F 51.3 °F 59% 29.77 in 10.0 mi SE 13.8 mph - N/A   Clear
10:55 PM 65.5 °F 51.8 °F 61% 29.77 in 10.0 mi SE 13.8 mph 18.4 mph N/A   Clear
11:15 PM 65.3 °F 52.0 °F 62% 29.76 in 10.0 mi SE 12.7 mph 17.3 mph N/A   Mostly Cloudy
11:35 PM 65.1 °F 52.2 °F 63% 29.75 in 10.0 mi SE 12.7 mph 18.4 mph N/A Thunderstorm Overcast
11:55 PM 65.3 °F 52.5 °F 63% 29.75 in 10.0 mi SE 12.7 mph 20.7 mph N/A   Overcast